Date String (YYYY-MM-DD hh:mm:ss) UTC,Instrument flags,absolute air pressure of the measurement (hPa),sample flow rate (lpm),inlet stack bypass flow (lpm),air temperature of the measurement (°C),ambient temperature measured by the external sensor (°C),aerosol sample conditioner tube jacket temperature (°C),OPC LED temperature (°C),internal box temperature (°C),relative humidity of the measurement (%),span deviation,mass concentration of particles derived from Lorenz-Mie calculation of OPC scattering (μg/m³),mass concentration of particles derived from Lorenz-Mie calculation of OPC scattering (μg/m³),mass concentration of particles derived from Lorenz-Mie calculation of OPC scattering (μg/m³)
DateTimeUTC,F1_M11,P_M11,Q1_M11,Q2_M11,T1_M11,T2_M11,T3_M11,T4_M11,T5_M11,U1_M11,ZSPAN_M11,X0_M11,X2_M11,X1_M11
2023-06-16 15:00:00,SystemResetWarning,0833.7,5.00,000.00,030.5,028.9,000.0,039.0,032.0,29.1,0000.0,0005.57,0003.05,0002.58
2023-06-16 15:01:00,SystemResetWarning,0833.7,4.99,000.00,030.5,028.9,000.0,039.0,032.0,29.0,0000.0,0005.54,0003.05,0002.57
2023-06-16 15:02:00,SystemResetWarning,0833.7,4.99,000.00,030.5,028.9,000.0,039.0,032.0,28.8,0000.0,0005.33,0003.03,0002.57
2023-06-16 15:03:00,SystemResetWarning,0833.7,5.01,000.00,030.5,028.9,000.0,039.0,032.0,28.8,0000.0,0004.97,0002.98,0002.57
2023-06-16 15:04:00,SystemResetWarning,0833.7,5.01,000.00,030.5,028.9,000.0,039.1,032.0,29.0,0000.0,0004.72,0002.97,0002.57
2023-06-16 15:05:00,SystemResetWarning,0833.7,5.00,000.00,030.5,029.0,000.0,039.1,032.0,29.3,0000.0,0004.27,0002.98,0002.58
2023-06-16 15:06:00,SystemResetWarning,0833.7,5.01,000.00,030.5,029.0,000.0,039.1,032.0,29.1,0000.0,0004.60,0003.01,0002.58
2023-06-16 15:07:00,SystemResetWarning,0833.7,5.00,000.00,030.5,029.0,000.0,039.1,032.0,28.7,0000.0,0005.03,0003.03,0002.58
2023-06-16 15:08:00,SystemResetWarning,0833.7,5.00,000.00,030.6,029.0,000.0,039.1,032.0,28.6,0000.0,0005.15,0003.01,0002.57
2023-06-16 15:09:00,SystemResetWarning,0833.7,5.00,000.00,030.6,029.0,000.0,039.1,032.0,28.9,0000.0,0005.31,0003.00,0002.56
2023-06-16 15:10:00,SystemResetWarning,0833.7,5.00,000.00,030.6,029.0,000.0,039.1,032.0,29.0,0000.0,0005.37,0003.01,0002.57
2023-06-16 15:11:00,SystemResetWarning,0833.7,4.99,000.00,030.6,028.1,000.0,039.1,032.1,28.8,0000.0,0005.38,0003.02,0002.58
2023-06-16 15:12:00,SystemResetWarning,0833.7,5.00,000.00,030.5,025.9,000.0,039.0,031.9,28.7,0000.0,0005.48,0003.06,0002.60
2023-06-16 15:13:00,SystemResetWarning,0833.7,5.01,000.00,030.5,025.1,000.0,038.9,031.7,28.6,0000.0,0005.57,0003.09,0002.61
2023-06-16 15:14:00,SystemResetWarning,0833.8,5.01,000.00,030.3,025.3,000.0,038.9,031.3,28.8,0000.0,0005.69,0003.12,0002.62
2023-06-16 15:15:00,SystemResetWarning,0833.8,5.00,000.00,030.2,025.7,000.0,038.9,031.4,29.2,0000.0,0005.61,0003.11,0002.62
2023-06-16 15:16:00,SystemResetWarning,0833.8,5.00,000.00,030.2,026.2,000.0,038.9,031.4,29.4,0000.0,0006.63,0003.13,0002.63
2023-06-16 15:17:00,SystemResetWarning,0833.8,5.00,000.00,030.2,026.6,000.0,038.9,031.4,29.3,0000.0,0006.33,0003.12,0002.64
2023-06-16 15:18:00,SystemResetWarning,0833.8,4.99,000.00,030.1,027.0,000.0,038.8,031.4,29.6,0000.0,0006.39,0003.10,0002.62
2023-06-16 15:19:00,SystemResetWarning,0833.8,5.00,000.00,030.1,027.3,000.0,038.8,031.5,29.5,0000.0,0006.27,0003.10,0002.63
2023-06-16 15:20:00,SystemResetWarning,0833.8,5.00,000.00,030.1,027.5,000.0,038.8,031.5,29.6,0000.0,0006.13,0003.12,0002.65
2023-06-16 15:21:00,SystemResetWarning,0833.8,5.00,000.00,030.1,027.7,000.0,038.8,031.5,29.9,0000.0,0006.16,0003.15,0002.65
2023-06-16 15:22:00,SystemResetWarning,0833.8,4.99,000.00,030.1,027.9,000.0,038.8,031.5,29.7,0000.0,0006.33,0003.18,0002.66
2023-06-16 15:23:00,SystemResetWarning,0833.8,4.99,000.00,030.1,028.0,000.0,038.8,031.6,29.7,0000.0,0006.38,0003.18,0002.65
2023-06-16 15:24:00,SystemResetWarning,0833.8,5.02,000.00,030.1,028.1,000.0,038.8,031.6,29.6,0000.0,0006.32,0003.16,0002.64
2023-06-16 15:25:00,SystemResetWarning,0833.8,5.01,000.00,030.1,028.2,000.0,038.8,031.6,29.0,0000.0,0006.22,0003.12,0002.59
2023-06-16 15:26:00,SystemResetWarning,0833.8,5.00,000.00,030.1,028.3,000.0,038.7,031.6,28.7,0000.0,0006.11,0003.07,0002.53
2023-06-16 15:27:00,SystemResetWarning,0833.8,4.99,000.00,030.1,028.4,000.0,038.7,031.6,28.4,0000.0,0005.09,0002.99,0002.48
2023-06-16 15:28:00,SystemResetWarning,0833.8,5.00,000.00,030.2,028.4,000.0,038.7,031.6,28.5,0000.0,0004.74,0002.94,0002.42
2023-06-16 15:29:00,SystemResetWarning,0833.8,5.00,000.00,030.2,028.5,000.0,038.7,031.6,28.7,0000.0,0004.30,0002.94,0002.38
2023-06-16 15:30:00,SystemResetWarning,0833.8,5.00,000.00,030.2,028.5,000.0,038.8,031.7,28.6,0000.0,0004.32,0002.91,0002.33
2023-06-16 15:31:00,SystemResetWarning,0833.8,5.00,000.00,030.2,028.6,000.0,038.7,031.7,29.0,0000.0,0004.56,0002.87,0002.27
2023-06-16 15:32:00,SystemResetWarning,0833.8,5.00,000.00,030.2,028.6,000.0,038.8,031.7,29.2,0000.0,0004.51,0002.80,0002.24
2023-06-16 15:33:00,SystemResetWarning,0833.8,5.00,000.00,030.2,028.6,000.0,038.8,031.8,29.8,0000.0,0005.19,0002.76,0002.22
2023-06-16 15:34:00,SystemResetWarning,0833.8,5.01,000.00,030.2,028.7,000.0,038.8,031.8,30.0,0000.0,0005.19,0002.76,0002.21
2023-06-16 15:35:00,SystemResetWarning,0833.8,5.00,000.00,030.3,028.7,000.0,038.8,031.8,29.4,0000.0,0005.15,0002.74,0002.20
2023-06-16 15:36:00,SystemResetWarning,0833.8,5.00,000.00,030.3,028.7,000.0,038.8,031.8,29.1,0000.0,0005.22,0002.79,0002.23
2023-06-16 15:37:00,SystemResetWarning,0833.8,5.00,000.00,030.3,028.7,000.0,038.8,031.8,29.5,0000.0,0005.53,0002.92,0002.29
2023-06-16 15:38:00,SystemResetWarning,0833.8,5.00,000.00,030.3,028.7,000.0,038.8,031.8,29.4,0000.0,0005.66,0002.99,0002.34
2023-06-16 15:39:00,SystemResetWarning,0833.8,5.00,000.00,030.3,028.8,000.0,038.8,031.8,29.7,0000.0,0005.59,0002.99,0002.38
2023-06-16 15:40:00,SystemResetWarning,0833.8,5.00,000.00,030.3,028.8,000.0,038.8,031.9,30.1,0000.0,0005.47,0002.98,0002.41
2023-06-16 15:41:00,SystemResetWarning,0833.8,5.00,000.00,030.3,028.8,000.0,038.9,031.9,30.0,0000.0,0005.42,0002.98,0002.42
2023-06-16 15:42:00,SystemResetWarning,0833.8,5.00,000.00,030.4,028.8,000.0,038.9,031.9,30.3,0000.0,0005.30,0003.00,0002.44
2023-06-16 15:43:00,SystemResetWarning,0833.8,5.00,000.00,030.4,028.8,000.0,038.9,031.9,30.1,0000.0,0005.15,0002.96,0002.43
2023-06-16 15:44:00,SystemResetWarning,0833.8,5.00,000.00,030.4,028.8,000.0,038.9,031.9,29.8,0000.0,0004.55,0002.95,0002.40
2023-06-16 15:45:00,SystemResetWarning,0833.8,5.00,000.00,030.4,028.9,000.0,038.9,031.9,29.1,0000.0,0004.23,0002.90,0002.36
2023-06-16 15:46:00,SystemResetWarning,0833.8,5.00,000.00,030.4,028.9,000.0,038.9,031.9,28.1,0000.0,0004.51,0002.90,0002.34
2023-06-16 15:47:00,SystemResetWarning,0833.8,5.00,000.00,030.4,028.9,000.0,038.9,031.9,28.4,0000.0,0004.72,0002.89,0002.32
2023-06-16 15:48:00,SystemResetWarning,0833.7,5.00,000.00,030.4,028.9,000.0,038.9,031.9,28.5,0000.0,0004.51,0002.81,0002.28
2023-06-16 15:49:00,SystemResetWarning,0833.8,5.00,000.00,030.4,028.9,000.0,038.9,031.9,28.7,0000.0,0004.30,0002.71,0002.23
2023-06-16 15:50:00,SystemResetWarning,0833.7,5.01,000.00,030.5,028.9,000.0,039.0,032.0,28.8,0000.0,0004.33,0002.71,0002.20
2023-06-16 15:51:00,SystemResetWarning,0833.7,5.00,000.00,030.5,028.9,000.0,039.0,032.0,28.7,0000.0,0004.26,0002.68,0002.17
2023-06-16 15:52:00,SystemResetWarning,0833.7,5.00,000.00,030.5,028.9,000.0,039.0,032.0,28.9,0000.0,0004.15,0002.65,0002.15
2023-06-16 15:53:00,SystemResetWarning,0833.7,4.99,000.00,030.5,029.0,000.0,039.0,032.0,28.5,0000.0,0003.92,0002.59,0002.13
2023-06-16 15:54:00,SystemResetWarning,0833.8,5.00,000.00,030.5,029.0,000.0,039.0,032.0,28.5,0000.0,0003.93,0002.59,0002.12
2023-06-16 15:55:00,SystemResetWarning,0833.7,5.00,000.00,030.5,029.0,000.0,039.0,032.0,29.0,0000.0,0003.92,0002.59,0002.13
2023-06-16 15:56:00,SystemResetWarning,0833.8,4.99,000.00,030.5,029.0,000.0,039.0,032.0,29.4,0000.0,0003.86,0002.57,0002.13
2023-06-16 15:57:00,SystemResetWarning,0833.8,4.99,000.00,030.5,028.8,000.0,039.0,032.0,28.4,0000.0,0003.63,0002.52,0002.13
2023-06-16 15:58:00,SystemResetWarning,0833.8,5.00,000.00,030.5,026.7,000.0,039.0,032.0,28.6,0000.0,0003.15,0002.47,0002.11
2023-06-16 15:59:00,SystemResetWarning,0833.7,5.00,000.00,030.5,025.5,000.0,038.9,031.9,28.6,0000.0,0003.21,0002.47,0002.11
